Year,Month,Day,Hour,Minute,Value (Times are PST for temperature in C)
2010,08,25,00,00,16.60
2010,08,25,00,01,16.60
2010,08,25,00,02,16.60
2010,08,25,00,03,16.70
2010,08,25,00,04,16.70
2010,08,25,00,05,16.70
2010,08,25,00,06,16.70
2010,08,25,00,07,16.80
2010,08,25,00,08,16.80
2010,08,25,00,09,16.80
2010,08,25,00,10,16.80
2010,08,25,00,11,16.70
2010,08,25,00,12,16.70
2010,08,25,00,13,16.70
2010,08,25,00,14,16.70
2010,08,25,00,15,16.60
2010,08,25,00,16,16.60
2010,08,25,00,17,16.50
2010,08,25,00,18,16.50
2010,08,25,00,19,16.50
2010,08,25,00,20,16.50
2010,08,25,00,21,16.50
2010,08,25,00,22,16.40
2010,08,25,00,23,16.50
2010,08,25,00,24,16.50
2010,08,25,00,25,16.50
2010,08,25,00,26,16.60
2010,08,25,00,27,16.60
2010,08,25,00,28,16.60
2010,08,25,00,29,16.60
2010,08,25,00,30,16.70
2010,08,25,00,31,16.70
2010,08,25,00,32,16.70
2010,08,25,00,33,16.70
2010,08,25,00,34,16.70
2010,08,25,00,35,16.80
2010,08,25,00,36,16.80
2010,08,25,00,37,16.80
2010,08,25,00,38,16.80
2010,08,25,00,39,16.80
2010,08,25,00,40,16.80
2010,08,25,00,41,16.80
2010,08,25,00,42,16.80
2010,08,25,00,43,16.80
2010,08,25,00,44,16.90
2010,08,25,00,45,16.90
2010,08,25,00,46,16.90
2010,08,25,00,47,16.90
2010,08,25,00,48,16.90
2010,08,25,00,49,16.90
2010,08,25,00,50,16.90
2010,08,25,00,51,16.80
2010,08,25,00,52,16.80
2010,08,25,00,53,16.80
2010,08,25,00,54,16.80
2010,08,25,00,55,16.80
2010,08,25,00,56,16.70
2010,08,25,00,57,16.70
2010,08,25,00,58,16.60
2010,08,25,00,59,16.60
2010,08,25,01,00,16.50
2010,08,25,01,01,16.50
2010,08,25,01,02,16.40
2010,08,25,01,03,16.40
2010,08,25,01,04,16.40
2010,08,25,01,05,16.30
2010,08,25,01,06,16.30
2010,08,25,01,07,16.30
2010,08,25,01,08,16.20
2010,08,25,01,09,16.20
2010,08,25,01,10,16.20
2010,08,25,01,11,16.20
2010,08,25,01,12,16.20
2010,08,25,01,13,16.20
2010,08,25,01,14,16.20
2010,08,25,01,15,16.10
2010,08,25,01,16,16.10
2010,08,25,01,17,16.10
2010,08,25,01,18,16.10
2010,08,25,01,19,16.10
2010,08,25,01,20,16.00
2010,08,25,01,21,16.00
2010,08,25,01,22,16.00
2010,08,25,01,23,16.00
2010,08,25,01,24,16.10
2010,08,25,01,25,16.10
2010,08,25,01,26,16.10
2010,08,25,01,27,16.10
2010,08,25,01,28,16.10
2010,08,25,01,29,16.20
2010,08,25,01,30,16.20
2010,08,25,01,31,16.20
2010,08,25,01,32,16.20
2010,08,25,01,33,16.20
2010,08,25,01,34,16.30
2010,08,25,01,35,16.30
2010,08,25,01,36,16.30
2010,08,25,01,37,16.30
2010,08,25,01,38,16.30
2010,08,25,01,39,16.20
2010,08,25,01,40,16.20
2010,08,25,01,41,16.20
2010,08,25,01,42,16.10
2010,08,25,01,43,16.10
2010,08,25,01,44,16.10
2010,08,25,01,45,16.10
2010,08,25,01,46,16.10
2010,08,25,01,47,16.10
2010,08,25,01,48,16.10
2010,08,25,01,49,16.10
2010,08,25,01,50,16.10
2010,08,25,01,51,16.10
2010,08,25,01,52,16.10
2010,08,25,01,53,16.00
2010,08,25,01,54,16.00
2010,08,25,01,55,15.90
2010,08,25,01,56,15.90
2010,08,25,01,57,15.90
2010,08,25,01,58,15.80
2010,08,25,01,59,15.80
2010,08,25,02,00,15.80
2010,08,25,02,01,15.70
2010,08,25,02,02,15.70
2010,08,25,02,03,15.70
2010,08,25,02,04,15.70
2010,08,25,02,05,15.70
2010,08,25,02,06,15.60
2010,08,25,02,07,15.60
2010,08,25,02,08,15.60
2010,08,25,02,09,15.60
2010,08,25,02,10,15.60
2010,08,25,02,11,15.60
2010,08,25,02,12,15.60
2010,08,25,02,13,15.60
2010,08,25,02,14,15.60
2010,08,25,02,15,15.60
2010,08,25,02,16,15.60
2010,08,25,02,17,15.60
2010,08,25,02,18,15.60
2010,08,25,02,19,15.60
2010,08,25,02,20,15.60
2010,08,25,02,21,15.60
2010,08,25,02,22,15.60
2010,08,25,02,23,15.60
2010,08,25,02,24,15.60
2010,08,25,02,25,15.70
2010,08,25,02,26,15.70
2010,08,25,02,27,15.70
2010,08,25,02,28,15.60
2010,08,25,02,29,15.60
2010,08,25,02,30,15.50
2010,08,25,02,31,15.50
2010,08,25,02,32,15.40
2010,08,25,02,33,15.30
2010,08,25,02,34,15.30
2010,08,25,02,35,15.30
2010,08,25,02,36,15.20
2010,08,25,02,37,15.20
2010,08,25,02,38,15.10
2010,08,25,02,39,15.00
2010,08,25,02,40,14.90
2010,08,25,02,41,14.90
2010,08,25,02,42,14.80
2010,08,25,02,43,14.70
2010,08,25,02,44,14.60
2010,08,25,02,45,14.60
2010,08,25,02,46,14.50
2010,08,25,02,47,14.40
2010,08,25,02,48,14.30
2010,08,25,02,49,14.30
2010,08,25,02,50,14.20
2010,08,25,02,51,14.20
2010,08,25,02,52,14.20
2010,08,25,02,53,14.20
2010,08,25,02,54,14.20
2010,08,25,02,55,14.20
2010,08,25,02,56,14.20
2010,08,25,02,57,14.20
2010,08,25,02,58,14.20
2010,08,25,02,59,14.20
2010,08,25,03,00,14.20
2010,08,25,03,01,14.20
2010,08,25,03,02,14.20
2010,08,25,03,03,14.20
2010,08,25,03,04,14.20
2010,08,25,03,05,14.20
2010,08,25,03,06,14.20
2010,08,25,03,07,14.20
2010,08,25,03,08,14.20
2010,08,25,03,09,14.20
2010,08,25,03,10,14.20
2010,08,25,03,11,14.30
2010,08,25,03,12,14.30
2010,08,25,03,13,14.30
2010,08,25,03,14,14.30
2010,08,25,03,15,14.30
2010,08,25,03,16,14.30
2010,08,25,03,17,14.30
2010,08,25,03,18,14.30
2010,08,25,03,19,14.30
2010,08,25,03,20,14.20
2010,08,25,03,21,14.20
2010,08,25,03,22,14.20
2010,08,25,03,23,14.20
2010,08,25,03,24,14.10
2010,08,25,03,25,14.10
2010,08,25,03,26,14.20
2010,08,25,03,27,14.10
2010,08,25,03,28,14.20
2010,08,25,03,29,14.10
2010,08,25,03,30,14.10
2010,08,25,03,31,14.10
2010,08,25,03,32,14.10
2010,08,25,03,33,14.00
2010,08,25,03,34,14.00
2010,08,25,03,35,14.00
2010,08,25,03,36,14.00
2010,08,25,03,37,14.00
2010,08,25,03,38,14.10
2010,08,25,03,39,14.10
2010,08,25,03,40,14.10
2010,08,25,03,41,14.20
2010,08,25,03,42,14.20
2010,08,25,03,43,14.30
2010,08,25,03,44,14.30
2010,08,25,03,45,14.30
2010,08,25,03,46,14.40
2010,08,25,03,47,14.40
2010,08,25,03,48,14.50
2010,08,25,03,49,14.50
2010,08,25,03,50,14.50
2010,08,25,03,51,14.50
2010,08,25,03,52,14.50
2010,08,25,03,53,14.50
2010,08,25,03,54,14.50
2010,08,25,03,55,14.50
2010,08,25,03,56,14.50
2010,08,25,03,57,14.50
2010,08,25,03,58,14.50
2010,08,25,03,59,14.50
2010,08,25,04,00,14.50
2010,08,25,04,01,14.50
2010,08,25,04,02,14.50
2010,08,25,04,03,14.50
2010,08,25,04,04,14.50
2010,08,25,04,05,14.50
2010,08,25,04,06,14.50
2010,08,25,04,07,14.50
2010,08,25,04,08,14.50
2010,08,25,04,09,14.50
2010,08,25,04,10,14.50
2010,08,25,04,11,14.50
2010,08,25,04,12,14.50
2010,08,25,04,13,14.50
2010,08,25,04,14,14.50
2010,08,25,04,15,14.50
2010,08,25,04,16,14.50
2010,08,25,04,17,14.50
2010,08,25,04,18,14.50
2010,08,25,04,19,14.50
2010,08,25,04,20,14.50
2010,08,25,04,21,14.50
2010,08,25,04,22,14.50
2010,08,25,04,23,14.50
2010,08,25,04,24,14.50
2010,08,25,04,25,14.50
2010,08,25,04,26,14.50
2010,08,25,04,27,14.50
2010,08,25,04,28,14.50
2010,08,25,04,29,14.50
2010,08,25,04,30,14.50
2010,08,25,04,31,14.50
2010,08,25,04,32,14.40
2010,08,25,04,33,14.40
2010,08,25,04,34,14.40
2010,08,25,04,35,14.40
2010,08,25,04,36,14.30
2010,08,25,04,37,14.30
2010,08,25,04,38,14.30
2010,08,25,04,39,14.30
2010,08,25,04,40,14.30
2010,08,25,04,41,14.30
2010,08,25,04,42,14.30
2010,08,25,04,43,14.40
2010,08,25,04,44,14.40
2010,08,25,04,45,14.40
2010,08,25,04,46,14.40
2010,08,25,04,47,14.40
2010,08,25,04,48,14.40
2010,08,25,04,49,14.40
2010,08,25,04,50,14.40
2010,08,25,04,51,14.40
2010,08,25,04,52,14.40
2010,08,25,04,53,14.40
2010,08,25,04,54,14.40
2010,08,25,04,55,14.40
2010,08,25,04,56,14.40
2010,08,25,04,57,14.40
2010,08,25,04,58,14.40
2010,08,25,04,59,14.50
2010,08,25,05,00,14.50
2010,08,25,05,01,14.50
2010,08,25,05,02,14.60
2010,08,25,05,03,14.60
2010,08,25,05,04,14.60
2010,08,25,05,05,14.60
2010,08,25,05,06,14.60
2010,08,25,05,07,14.60
2010,08,25,05,08,14.60
2010,08,25,05,09,14.60
2010,08,25,05,10,14.60
2010,08,25,05,11,14.60
2010,08,25,05,12,14.60
2010,08,25,05,13,14.60
2010,08,25,05,14,14.60
2010,08,25,05,15,14.70
2010,08,25,05,16,14.70
2010,08,25,05,17,14.70
2010,08,25,05,18,14.70
2010,08,25,05,19,14.80
2010,08,25,05,20,14.80
2010,08,25,05,21,14.80
2010,08,25,05,22,14.90
2010,08,25,05,23,14.90
2010,08,25,05,24,15.00
2010,08,25,05,25,15.00
2010,08,25,05,26,15.00
2010,08,25,05,27,15.10
2010,08,25,05,28,15.10
2010,08,25,05,29,15.10
2010,08,25,05,30,15.10
2010,08,25,05,31,15.10
2010,08,25,05,32,15.10
2010,08,25,05,33,15.10
2010,08,25,05,34,15.00
2010,08,25,05,35,15.00
2010,08,25,05,36,15.00
2010,08,25,05,37,15.00
2010,08,25,05,38,14.90
2010,08,25,05,39,14.90
2010,08,25,05,40,14.90
2010,08,25,05,41,14.90
2010,08,25,05,42,14.90
2010,08,25,05,43,14.90
2010,08,25,05,44,14.90
2010,08,25,05,45,14.90
2010,08,25,05,46,14.90
2010,08,25,05,47,14.90
2010,08,25,05,48,14.90
2010,08,25,05,49,14.90
2010,08,25,05,50,15.00
2010,08,25,05,51,15.00
2010,08,25,05,52,15.00
2010,08,25,05,53,15.00
2010,08,25,05,54,15.00
2010,08,25,05,55,15.00
2010,08,25,05,56,15.00
2010,08,25,05,57,15.00
2010,08,25,05,58,15.10
2010,08,25,05,59,15.10
2010,08,25,06,00,15.20
2010,08,25,06,01,15.20
2010,08,25,06,02,15.20
2010,08,25,06,03,15.10
2010,08,25,06,04,15.10
2010,08,25,06,05,15.10
2010,08,25,06,06,15.20
2010,08,25,06,07,15.20
2010,08,25,06,08,15.20
2010,08,25,06,09,15.20
2010,08,25,06,10,15.20
2010,08,25,06,11,15.20
2010,08,25,06,12,15.20
2010,08,25,06,13,15.20
2010,08,25,06,14,15.20
2010,08,25,06,15,15.10
2010,08,25,06,16,15.10
2010,08,25,06,17,15.10
2010,08,25,06,18,15.10
2010,08,25,06,19,15.10
2010,08,25,06,20,15.20
2010,08,25,06,21,15.20
2010,08,25,06,22,15.20
2010,08,25,06,23,15.20
2010,08,25,06,24,15.30
2010,08,25,06,25,15.30
2010,08,25,06,26,15.30
2010,08,25,06,27,15.30
2010,08,25,06,28,15.40
2010,08,25,06,29,15.40
2010,08,25,06,30,15.50
2010,08,25,06,31,15.60
2010,08,25,06,32,15.60
2010,08,25,06,33,15.60
2010,08,25,06,34,15.60
2010,08,25,06,35,15.70
2010,08,25,06,36,15.70
2010,08,25,06,37,15.80
2010,08,25,06,38,15.80
2010,08,25,06,39,15.80
2010,08,25,06,40,15.80
2010,08,25,06,41,15.80
2010,08,25,06,42,15.80
2010,08,25,06,43,15.70
2010,08,25,06,44,15.70
2010,08,25,06,45,15.80
2010,08,25,06,46,15.80
2010,08,25,06,47,15.80
2010,08,25,06,48,15.80
2010,08,25,06,49,15.80
2010,08,25,06,50,15.80
2010,08,25,06,51,15.80
2010,08,25,06,52,15.90
2010,08,25,06,53,15.90
2010,08,25,06,54,15.90
2010,08,25,06,55,16.00
2010,08,25,06,56,16.00
2010,08,25,06,57,16.00
2010,08,25,06,58,16.10
2010,08,25,06,59,16.10
2010,08,25,07,00,16.10
2010,08,25,07,01,16.10
2010,08,25,07,02,16.10
2010,08,25,07,03,16.00
2010,08,25,07,04,16.00
2010,08,25,07,05,15.90
2010,08,25,07,06,15.80
2010,08,25,07,07,15.80
2010,08,25,07,08,15.80
2010,08,25,07,09,15.70
2010,08,25,07,10,15.70
2010,08,25,07,11,15.60
2010,08,25,07,12,15.50
2010,08,25,07,13,15.50
2010,08,25,07,14,15.50
2010,08,25,07,15,15.50
2010,08,25,07,16,15.50
2010,08,25,07,17,15.50
2010,08,25,07,18,15.60
2010,08,25,07,19,15.60
2010,08,25,07,20,15.60
2010,08,25,07,21,15.50
2010,08,25,07,22,15.50
2010,08,25,07,23,15.50
2010,08,25,07,24,15.50
2010,08,25,07,25,15.60
2010,08,25,07,26,15.60
2010,08,25,07,27,15.70
2010,08,25,07,28,15.80
2010,08,25,07,29,15.90
2010,08,25,07,30,15.90
2010,08,25,07,31,16.00
2010,08,25,07,32,16.10
2010,08,25,07,33,16.10
2010,08,25,07,34,16.20
2010,08,25,07,35,16.20
2010,08,25,07,36,16.30
2010,08,25,07,37,16.30
2010,08,25,07,38,16.40
2010,08,25,07,39,16.50
2010,08,25,07,40,16.60
2010,08,25,07,41,16.70
2010,08,25,07,42,16.70
2010,08,25,07,43,16.70
2010,08,25,07,44,16.70
2010,08,25,07,45,16.70
2010,08,25,07,46,16.80
2010,08,25,07,47,16.80
2010,08,25,07,48,16.80
2010,08,25,07,49,16.80
2010,08,25,07,50,16.80
2010,08,25,07,51,16.80
2010,08,25,07,52,16.90
2010,08,25,07,53,16.90
2010,08,25,07,54,17.00
2010,08,25,07,55,17.00
2010,08,25,07,56,17.10
2010,08,25,07,57,17.10
2010,08,25,07,58,17.10
2010,08,25,07,59,17.20
2010,08,25,08,00,17.20
2010,08,25,08,01,17.30
2010,08,25,08,02,17.40
2010,08,25,08,03,17.40
2010,08,25,08,04,17.50
2010,08,25,08,05,17.50
2010,08,25,08,06,17.60
2010,08,25,08,07,17.70
2010,08,25,08,08,17.70
2010,08,25,08,09,17.80
2010,08,25,08,10,17.80
2010,08,25,08,11,17.80
2010,08,25,08,12,17.90
2010,08,25,08,13,17.90
2010,08,25,08,14,18.00
2010,08,25,08,15,18.10
2010,08,25,08,16,18.20
2010,08,25,08,17,18.30
2010,08,25,08,18,18.40
2010,08,25,08,19,18.40
2010,08,25,08,20,18.40
2010,08,25,08,21,18.40
2010,08,25,08,22,18.40
2010,08,25,08,23,18.50
2010,08,25,08,24,18.60
2010,08,25,08,25,18.60
2010,08,25,08,26,18.70
2010,08,25,08,27,18.70
2010,08,25,08,28,18.80
2010,08,25,08,29,18.80
2010,08,25,08,30,18.80
2010,08,25,08,31,18.80
2010,08,25,08,32,18.90
2010,08,25,08,33,18.90
2010,08,25,08,34,19.00
2010,08,25,08,35,19.00
2010,08,25,08,36,19.10
2010,08,25,08,37,19.00
2010,08,25,08,38,19.10
2010,08,25,08,39,19.10
2010,08,25,08,40,19.10
2010,08,25,08,41,19.10
2010,08,25,08,42,19.20
2010,08,25,08,43,19.20
2010,08,25,08,44,19.30
2010,08,25,08,45,19.30
2010,08,25,08,46,19.30
2010,08,25,08,47,19.30
2010,08,25,08,48,19.20
2010,08,25,08,49,19.20
2010,08,25,08,50,19.20
2010,08,25,08,51,19.30
2010,08,25,08,52,19.30
2010,08,25,08,53,19.30
2010,08,25,08,54,19.40
2010,08,25,08,55,19.40
2010,08,25,08,56,19.50
2010,08,25,08,57,19.50
2010,08,25,08,58,19.60
2010,08,25,08,59,19.60
2010,08,25,09,00,19.60
2010,08,25,09,01,19.70
2010,08,25,09,02,19.70
2010,08,25,09,03,19.60
2010,08,25,09,04,19.60
2010,08,25,09,05,19.70
2010,08,25,09,06,19.70
2010,08,25,09,07,19.70
2010,08,25,09,08,19.70
2010,08,25,09,09,19.70
2010,08,25,09,10,19.70
2010,08,25,09,11,19.70
2010,08,25,09,12,19.70
2010,08,25,09,13,19.70
2010,08,25,09,14,19.70
2010,08,25,09,15,19.60
2010,08,25,09,16,19.60
2010,08,25,09,17,19.60
2010,08,25,09,18,19.60
2010,08,25,09,19,19.60
2010,08,25,09,20,19.60
2010,08,25,09,21,19.60
2010,08,25,09,22,19.60
2010,08,25,09,23,19.70
2010,08,25,09,24,19.70
2010,08,25,09,25,19.80
2010,08,25,09,26,20.00
2010,08,25,09,27,20.10
2010,08,25,09,28,20.20
2010,08,25,09,29,20.20
2010,08,25,09,30,20.30
2010,08,25,09,31,20.30
2010,08,25,09,32,20.20
2010,08,25,09,33,20.20
2010,08,25,09,34,20.20
2010,08,25,09,35,20.10
2010,08,25,09,36,20.10
2010,08,25,09,37,20.10
2010,08,25,09,38,20.10
2010,08,25,09,39,20.10
2010,08,25,09,40,20.20
2010,08,25,09,41,20.20
2010,08,25,09,42,20.20
2010,08,25,09,43,20.30
2010,08,25,09,44,20.30
2010,08,25,09,45,20.30
2010,08,25,09,46,20.20
2010,08,25,09,47,20.10
2010,08,25,09,48,20.10
2010,08,25,09,49,20.10
2010,08,25,09,50,20.10
2010,08,25,09,51,20.10
2010,08,25,09,52,20.10
2010,08,25,09,53,20.20
2010,08,25,09,54,20.30
2010,08,25,09,55,20.30
2010,08,25,09,56,20.30
2010,08,25,09,57,20.30
2010,08,25,09,58,20.30
2010,08,25,09,59,20.50
2010,08,25,10,00,20.60
2010,08,25,10,01,20.80
2010,08,25,10,02,20.80
2010,08,25,10,03,20.80
2010,08,25,10,04,20.70
2010,08,25,10,05,20.60
2010,08,25,10,06,20.40
2010,08,25,10,07,20.30
2010,08,25,10,08,20.20
2010,08,25,10,09,20.10
2010,08,25,10,10,20.10
2010,08,25,10,11,20.00
2010,08,25,10,12,20.10
2010,08,25,10,13,20.20
2010,08,25,10,14,20.30
2010,08,25,10,15,20.40
2010,08,25,10,16,20.50
2010,08,25,10,17,20.50
2010,08,25,10,18,20.60
2010,08,25,10,19,20.60
2010,08,25,10,20,20.60
2010,08,25,10,21,20.70
2010,08,25,10,22,20.70
2010,08,25,10,23,20.80
2010,08,25,10,24,20.80
2010,08,25,10,25,20.80
2010,08,25,10,26,20.80
2010,08,25,10,27,20.80
2010,08,25,10,28,20.80
2010,08,25,10,29,20.80
2010,08,25,10,30,20.70
2010,08,25,10,31,20.70
2010,08,25,10,32,20.70
2010,08,25,10,33,20.70
2010,08,25,10,34,20.70
2010,08,25,10,35,20.80
2010,08,25,10,36,20.80
2010,08,25,10,37,20.80
2010,08,25,10,38,20.80
2010,08,25,10,39,20.90
2010,08,25,10,40,20.90
2010,08,25,10,41,21.00
2010,08,25,10,42,21.10
2010,08,25,10,43,21.10
2010,08,25,10,44,21.10
2010,08,25,10,45,21.10
2010,08,25,10,46,21.10
2010,08,25,10,47,21.10
2010,08,25,10,48,21.10
2010,08,25,10,49,21.20
2010,08,25,10,50,21.20
2010,08,25,10,51,21.20
2010,08,25,10,52,21.20
2010,08,25,10,53,21.20
2010,08,25,10,54,21.20
2010,08,25,10,55,21.20
2010,08,25,10,56,21.30
2010,08,25,10,57,21.40
2010,08,25,10,58,21.60
2010,08,25,10,59,21.70
2010,08,25,11,00,21.80
2010,08,25,11,01,21.80
2010,08,25,11,02,21.80
2010,08,25,11,03,21.70
2010,08,25,11,04,21.70
2010,08,25,11,05,21.80
2010,08,25,11,06,21.80
2010,08,25,11,07,21.80
2010,08,25,11,08,21.80
2010,08,25,11,09,21.80
2010,08,25,11,10,21.80
2010,08,25,11,11,21.80
2010,08,25,11,12,21.80
2010,08,25,11,13,21.80
2010,08,25,11,14,21.80
2010,08,25,11,15,21.90
2010,08,25,11,16,22.10
2010,08,25,11,17,22.30
2010,08,25,11,18,22.30
2010,08,25,11,19,22.40
2010,08,25,11,20,22.40
2010,08,25,11,21,22.50
2010,08,25,11,22,22.60
2010,08,25,11,23,22.60
2010,08,25,11,24,22.50
2010,08,25,11,25,22.50
2010,08,25,11,26,22.40
2010,08,25,11,27,22.40
2010,08,25,11,28,22.40
2010,08,25,11,29,22.50
2010,08,25,11,30,22.50
2010,08,25,11,31,22.50
2010,08,25,11,32,22.50
2010,08,25,11,33,22.40
2010,08,25,11,34,22.40
2010,08,25,11,35,22.20
2010,08,25,11,36,21.90
2010,08,25,11,37,21.70
2010,08,25,11,38,21.50
2010,08,25,11,39,21.50
2010,08,25,11,40,21.60
2010,08,25,11,41,21.70
2010,08,25,11,42,21.90
2010,08,25,11,43,22.00
2010,08,25,11,44,22.10
2010,08,25,11,45,22.20
2010,08,25,11,46,22.40
2010,08,25,11,47,22.60
2010,08,25,11,48,22.70
2010,08,25,11,49,22.80
2010,08,25,11,50,22.80
2010,08,25,11,51,23.00
2010,08,25,11,52,23.00
2010,08,25,11,53,23.00
2010,08,25,11,54,22.90
2010,08,25,11,55,22.90
2010,08,25,11,56,22.80
2010,08,25,11,57,22.70
2010,08,25,11,58,22.70
2010,08,25,11,59,22.90
2010,08,25,12,00,23.00
2010,08,25,12,01,23.00
2010,08,25,12,02,23.10
2010,08,25,12,03,23.20
2010,08,25,12,04,23.20
2010,08,25,12,05,23.40
2010,08,25,12,06,23.50
2010,08,25,12,07,23.60
2010,08,25,12,08,23.60
2010,08,25,12,09,23.50
2010,08,25,12,10,23.60
2010,08,25,12,11,23.60
2010,08,25,12,12,23.50
2010,08,25,12,13,23.30
2010,08,25,12,14,23.20
2010,08,25,12,15,23.30
2010,08,25,12,16,23.30
2010,08,25,12,17,23.30
2010,08,25,12,18,23.10
2010,08,25,12,19,23.10
2010,08,25,12,20,23.20
2010,08,25,12,21,23.40
2010,08,25,12,22,23.40
2010,08,25,12,23,23.40
2010,08,25,12,24,23.40
2010,08,25,12,25,23.40
2010,08,25,12,26,23.40
2010,08,25,12,27,23.30
2010,08,25,12,28,23.20
2010,08,25,12,29,23.00
2010,08,25,12,30,22.90
2010,08,25,12,31,23.00
2010,08,25,12,32,23.10
2010,08,25,12,33,23.10
2010,08,25,12,34,23.20
2010,08,25,12,35,23.00
2010,08,25,12,36,22.90
2010,08,25,12,37,22.90
2010,08,25,12,38,22.90
2010,08,25,12,39,22.90
2010,08,25,12,40,22.80
2010,08,25,12,41,22.80
2010,08,25,12,42,22.80
2010,08,25,12,43,22.70
2010,08,25,12,44,22.80
2010,08,25,12,45,22.80
2010,08,25,12,46,22.80
2010,08,25,12,47,22.80
2010,08,25,12,48,22.80
2010,08,25,12,49,22.80
2010,08,25,12,50,22.80
2010,08,25,12,51,22.80
2010,08,25,12,52,22.90
2010,08,25,12,53,22.90
2010,08,25,12,54,22.90
2010,08,25,12,55,22.80
2010,08,25,12,56,22.70
2010,08,25,12,57,22.60
2010,08,25,12,58,22.50
2010,08,25,12,59,22.50
2010,08,25,13,00,22.60
2010,08,25,13,01,22.80
2010,08,25,13,02,22.90
2010,08,25,13,03,22.90
2010,08,25,13,04,22.90
2010,08,25,13,05,22.80
2010,08,25,13,06,22.80
2010,08,25,13,07,22.90
2010,08,25,13,08,22.90
2010,08,25,13,09,22.80
2010,08,25,13,10,22.70
2010,08,25,13,11,22.80
2010,08,25,13,12,22.80
2010,08,25,13,13,22.80
2010,08,25,13,14,22.80
2010,08,25,13,15,22.90
2010,08,25,13,16,23.00
2010,08,25,13,17,23.10
2010,08,25,13,18,23.10
2010,08,25,13,19,23.00
2010,08,25,13,20,22.90
2010,08,25,13,21,22.90
2010,08,25,13,22,22.90
2010,08,25,13,23,22.80
2010,08,25,13,24,22.70
2010,08,25,13,25,22.70
2010,08,25,13,26,22.70
2010,08,25,13,27,22.80
2010,08,25,13,28,22.80
2010,08,25,13,29,22.80
2010,08,25,13,30,22.80
2010,08,25,13,31,22.80
2010,08,25,13,32,22.80
2010,08,25,13,33,22.80
2010,08,25,13,34,23.00
2010,08,25,13,35,23.10
2010,08,25,13,36,23.10
2010,08,25,13,37,23.20
2010,08,25,13,38,23.20
2010,08,25,13,39,23.20
2010,08,25,13,40,23.20
2010,08,25,13,41,23.10
2010,08,25,13,42,23.10
2010,08,25,13,43,23.10
2010,08,25,13,44,23.10
2010,08,25,13,45,23.10
2010,08,25,13,46,23.20
2010,08,25,13,47,23.20
2010,08,25,13,48,23.20
2010,08,25,13,49,23.20
2010,08,25,13,50,23.20
2010,08,25,13,51,23.30
2010,08,25,13,52,23.20
2010,08,25,13,53,23.20
2010,08,25,13,54,23.20
2010,08,25,13,55,23.20
2010,08,25,13,56,23.30
2010,08,25,13,57,23.40
2010,08,25,13,58,23.60
2010,08,25,13,59,23.70
2010,08,25,14,00,23.80
2010,08,25,14,01,23.80
2010,08,25,14,02,23.70
2010,08,25,14,03,23.70
2010,08,25,14,04,23.60
2010,08,25,14,05,23.50
2010,08,25,14,06,23.40
2010,08,25,14,07,23.30
2010,08,25,14,08,23.30
2010,08,25,14,09,23.40
2010,08,25,14,10,23.50
2010,08,25,14,11,23.50
2010,08,25,14,12,23.40
2010,08,25,14,13,23.40
2010,08,25,14,14,23.30
2010,08,25,14,15,23.40
2010,08,25,14,16,23.60
2010,08,25,14,17,23.70
2010,08,25,14,18,23.60
2010,08,25,14,19,23.70
2010,08,25,14,20,23.80
2010,08,25,14,21,23.90
2010,08,25,14,22,23.90
2010,08,25,14,23,23.80
2010,08,25,14,24,23.80
2010,08,25,14,25,23.80
2010,08,25,14,26,23.80
2010,08,25,14,27,23.80
2010,08,25,14,28,23.70
2010,08,25,14,29,23.70
2010,08,25,14,30,23.60
2010,08,25,14,31,23.40
2010,08,25,14,32,23.40
2010,08,25,14,33,23.40
2010,08,25,14,34,23.40
2010,08,25,14,35,23.40
2010,08,25,14,36,23.40
2010,08,25,14,37,23.50
2010,08,25,14,38,23.60
2010,08,25,14,39,23.70
2010,08,25,14,40,23.70
2010,08,25,14,41,23.60
2010,08,25,14,42,23.60
2010,08,25,14,43,23.60
2010,08,25,14,44,23.70
2010,08,25,14,45,23.70
2010,08,25,14,46,23.70
2010,08,25,14,47,23.70
2010,08,25,14,48,23.70
2010,08,25,14,49,23.70
2010,08,25,14,50,23.80
2010,08,25,14,51,23.90
2010,08,25,14,52,24.00
2010,08,25,14,53,24.00
2010,08,25,14,54,24.10
2010,08,25,14,55,24.10
2010,08,25,14,56,24.20
2010,08,25,14,57,24.20
2010,08,25,14,58,24.20
2010,08,25,14,59,24.20
2010,08,25,15,00,24.20
2010,08,25,15,01,24.20
2010,08,25,15,02,24.20
2010,08,25,15,03,24.20
2010,08,25,15,04,24.30
2010,08,25,15,05,24.40
2010,08,25,15,06,24.40
2010,08,25,15,07,24.40
2010,08,25,15,08,24.40
2010,08,25,15,09,24.30
2010,08,25,15,10,24.40
2010,08,25,15,11,24.50
2010,08,25,15,12,24.80
2010,08,25,15,13,25.10
2010,08,25,15,14,25.20
2010,08,25,15,15,25.20
2010,08,25,15,16,25.10
2010,08,25,15,17,25.00
2010,08,25,15,18,24.90
2010,08,25,15,19,24.80
2010,08,25,15,20,24.70
2010,08,25,15,21,24.60
2010,08,25,15,22,24.60
2010,08,25,15,23,24.60
2010,08,25,15,24,24.50
2010,08,25,15,25,24.50
2010,08,25,15,26,24.50
2010,08,25,15,27,24.50
2010,08,25,15,28,24.60
2010,08,25,15,29,24.70
2010,08,25,15,30,24.90
2010,08,25,15,31,25.10
2010,08,25,15,32,25.10
2010,08,25,15,33,25.00
2010,08,25,15,34,25.00
2010,08,25,15,35,24.90
2010,08,25,15,36,24.80
2010,08,25,15,37,24.80
2010,08,25,15,38,24.70
2010,08,25,15,39,24.80
2010,08,25,15,40,24.80
2010,08,25,15,41,24.80
2010,08,25,15,42,24.80
2010,08,25,15,43,24.70
2010,08,25,15,44,24.70
2010,08,25,15,45,24.70
2010,08,25,15,46,24.60
2010,08,25,15,47,24.50
2010,08,25,15,48,24.50
2010,08,25,15,49,24.60
2010,08,25,15,50,24.50
2010,08,25,15,51,24.60
2010,08,25,15,52,24.60
2010,08,25,15,53,24.70
2010,08,25,15,54,24.80
2010,08,25,15,55,24.90
2010,08,25,15,56,24.90
2010,08,25,15,57,24.90
2010,08,25,15,58,24.90
2010,08,25,15,59,24.90
2010,08,25,16,00,25.00
2010,08,25,16,01,25.10
2010,08,25,16,02,25.10
2010,08,25,16,03,25.20
2010,08,25,16,04,25.20
2010,08,25,16,05,25.20
2010,08,25,16,06,25.30
2010,08,25,16,07,25.30
2010,08,25,16,08,25.30
2010,08,25,16,09,25.30
2010,08,25,16,10,25.40
2010,08,25,16,11,25.50
2010,08,25,16,12,25.50
2010,08,25,16,13,25.50
2010,08,25,16,14,25.60
2010,08,25,16,15,25.60
2010,08,25,16,16,25.70
2010,08,25,16,17,25.70
2010,08,25,16,18,25.80
2010,08,25,16,19,25.80
2010,08,25,16,20,25.80
2010,08,25,16,21,25.90
2010,08,25,16,22,25.90
2010,08,25,16,23,25.80
2010,08,25,16,24,25.80
2010,08,25,16,25,25.80
2010,08,25,16,26,25.80
2010,08,25,16,27,25.90
2010,08,25,16,28,25.90
2010,08,25,16,29,26.00
2010,08,25,16,30,26.00
2010,08,25,16,31,25.90
2010,08,25,16,32,25.80
2010,08,25,16,33,25.80
2010,08,25,16,34,25.80
2010,08,25,16,35,25.70
2010,08,25,16,36,25.80
2010,08,25,16,37,25.80
2010,08,25,16,38,25.80
2010,08,25,16,39,25.70
2010,08,25,16,40,25.70
2010,08,25,16,41,25.70
2010,08,25,16,42,25.70
2010,08,25,16,43,25.70
2010,08,25,16,44,25.70
2010,08,25,16,45,25.70
2010,08,25,16,46,25.70
2010,08,25,16,47,25.70
2010,08,25,16,48,25.70
2010,08,25,16,49,25.70
2010,08,25,16,50,25.70
2010,08,25,16,51,25.60
2010,08,25,16,52,25.60
2010,08,25,16,53,25.50
2010,08,25,16,54,25.50
2010,08,25,16,55,25.40
2010,08,25,16,56,25.40
2010,08,25,16,57,25.40
2010,08,25,16,58,25.40
2010,08,25,16,59,25.40
2010,08,25,17,00,25.30
2010,08,25,17,01,25.30
2010,08,25,17,02,25.30
2010,08,25,17,03,25.30
2010,08,25,17,04,25.30
2010,08,25,17,05,25.30
2010,08,25,17,06,25.30
2010,08,25,17,07,25.30
2010,08,25,17,08,25.20
2010,08,25,17,09,25.20
2010,08,25,17,10,25.20
2010,08,25,17,11,25.20
2010,08,25,17,12,25.20
2010,08,25,17,13,25.20
2010,08,25,17,14,25.20
2010,08,25,17,15,25.20
2010,08,25,17,16,25.20
2010,08,25,17,17,25.20
2010,08,25,17,18,25.20
2010,08,25,17,19,25.10